Weather History for Cherokee, IA

Change the Weather History Date:

Tuesday, March 12, 2013

  Actual Average Record
Temperature  
Mean Temperature 22 °F -  
Max Temperature 30 °F 42 °F 68 °F (2007)
Min Temperature 15 °F 23 °F -9 °F (1960)
Degree Days  
Heating Degree Days 43    
Moisture  
Dew Point 19 °F    
Average Humidity 79    
Maximum Humidity 95    
Minimum Humidity 64    
Precipitation  
Precipitation 0.00 in - - ()
Sea Level Pressure  
Sea Level Pressure 30.09 in    
Wind  
Wind Speed 9 mph (WNW)    
Max Wind Speed 21 mph    
Max Gust Speed 33 mph    
Visibility 8 miles    
Events Snow    
Averages and records for this station are not official NWS values.
T = Trace of Precipitation, MM = Missing Value Source: NWS Daily Summary

Daily Weather History Graph

Daily Weather History Graph

Search for Another Location

Airport:

Trip Planner

Search our weather history database for the weather conditions in past years. The results will help you decide how hot, cold, wet, or windy it might be!

Date:

Astronomy

Mar. 12, 2013 Rise Set
Actual Time 7:38 AM CDT 7:25 PM CDT
Civil Twilight 7:10 AM CDT 7:53 PM CDT
Nautical Twilight 6:38 AM CDT 8:26 PM CDT
Astronomical Twilight 6:04 AM CDT 8:59 PM CDT
Moon 7:43 AM CDT (3/12) 8:44 PM CDT (3/12)
Length of Visible Light 12h 42m
Length of Day
11h 46m
New Moon, 1% of the Moon is Illuminated
Mar 12
New Moon
Mar 19
First Quarter
Mar 27
Full
Apr 2
Last Quarter
Apr 10
New

Hourly Weather History & Observations

Time (CDT) Temp. Windchill Dew Point Humidity Pressure Visibility Wind Dir Wind Speed Gust Speed Precip Events Conditions
12:35 AM 22.1 °F 15.9 °F 18.1 °F 85% 29.96 in 10.0 mi NNW 4.6 mph - N/A   Clear
12:55 AM 19.4 °F 14.3 °F 16.0 °F 87% 29.96 in 10.0 mi WNW 3.5 mph - N/A   Clear
1:15 AM 17.1 °F 11.7 °F 13.8 °F 87% 29.96 in 10.0 mi SW 3.5 mph - N/A   Clear
1:35 AM 16.0 °F - 14.0 °F 92% 29.97 in 10.0 mi Calm Calm - N/A   Clear
1:55 AM 16.0 °F 7.4 °F 14.2 °F 93% 29.96 in 10.0 mi WSW 5.8 mph - N/A   Clear
2:15 AM 16.3 °F 10.8 °F 14.2 °F 91% 29.97 in 7.0 mi SSW 3.5 mph - N/A   Clear
2:35 AM 15.4 °F 9.8 °F 13.5 °F 92% 29.98 in 7.0 mi South 3.5 mph - N/A   Clear
2:55 AM 16.3 °F 10.8 °F 15.1 °F 95% 29.98 in 7.0 mi SW 3.5 mph - N/A   Mostly Cloudy
3:15 AM 17.4 °F 8.0 °F 16.2 °F 95% 29.98 in 7.0 mi WSW 6.9 mph - N/A   Mostly Cloudy
3:35 AM 19.9 °F 10.1 °F 18.3 °F 93% 29.97 in 10.0 mi WSW 8.1 mph - N/A   Scattered Clouds
3:55 AM 16.7 °F 9.6 °F 14.7 °F 92% 29.96 in 10.0 mi SW 4.6 mph - N/A   Clear
4:15 AM 16.9 °F 8.5 °F 15.3 °F 93% 29.95 in 10.0 mi SSW 5.8 mph - N/A   Clear
4:35 AM 17.1 °F 11.7 °F 15.6 °F 94% 29.95 in 10.0 mi WSW 3.5 mph - N/A   Mostly Cloudy
4:55 AM 18.1 °F 11.3 °F 16.3 °F 93% 29.95 in 10.0 mi WSW 4.6 mph - N/A   Overcast
5:15 AM 21.2 °F 10.1 °F 19.2 °F 92% 29.96 in 10.0 mi West 10.4 mph - N/A   Mostly Cloudy
5:35 AM 24.1 °F - 21.6 °F 90% 29.96 in 10.0 mi Calm Calm - N/A   Mostly Cloudy
5:55 AM 24.8 °F 14.6 °F 22.1 °F 89% 29.97 in 5.0 mi West 10.4 mph - N/A Snow Light Snow
6:15 AM 27.3 °F 18.4 °F 24.6 °F 90% 29.97 in 7.0 mi WNW 9.2 mph - N/A Snow Light Snow
6:35 AM 29.1 °F 18.9 °F 26.1 °F 88% 29.97 in 7.0 mi WNW 12.7 mph 18.4 mph N/A Snow Light Snow
6:55 AM 29.3 °F 19.6 °F 25.5 °F 86% 29.97 in 7.0 mi WNW 11.5 mph 18.4 mph N/A Snow Light Snow
7:15 AM 29.3 °F 18.2 °F 25.5 °F 86% 29.97 in 10.0 mi WNW 15.0 mph 19.6 mph N/A   Overcast
7:35 AM 29.1 °F 16.0 °F 23.7 °F 80% 29.98 in 5.0 mi WNW 20.7 mph 29.9 mph N/A Snow Light Snow
7:55 AM 28.6 °F 17.2 °F 22.1 °F 77% 29.99 in 7.0 mi NW 15.0 mph 32.2 mph N/A   Overcast
8:15 AM 28.4 °F 15.4 °F 22.3 °F 78% 30.00 in 10.0 mi WNW 19.6 mph 25.3 mph N/A   Overcast
8:35 AM 28.0 °F 17.0 °F 21.7 °F 77% 30.00 in 10.0 mi WNW 13.8 mph 24.2 mph N/A   Mostly Cloudy
8:55 AM 28.0 °F 16.1 °F 22.8 °F 81% 30.01 in 10.0 mi WNW 16.1 mph 24.2 mph N/A   Overcast
9:15 AM 28.2 °F 15.9 °F 23.2 °F 81% 30.02 in 10.0 mi NW 17.3 mph 25.3 mph N/A   Overcast
9:35 AM 28.4 °F 15.4 °F 22.6 °F 79% 30.02 in 7.0 mi WNW 19.6 mph 26.5 mph N/A   Overcast
9:55 AM 28.4 °F 15.8 °F 22.8 °F 80% 30.03 in 7.0 mi WNW 18.4 mph 27.6 mph N/A Snow Light Snow
10:15 AM 28.6 °F 16.8 °F 22.8 °F 79% 30.04 in 4.0 mi WNW 16.1 mph 27.6 mph N/A Snow Light Snow
10:35 AM 28.4 °F 17.0 °F 23.5 °F 82% 30.05 in 4.0 mi WNW 15.0 mph 21.9 mph N/A Snow Light Snow
10:55 AM 28.4 °F 16.6 °F 23.5 °F 82% 30.05 in 3.0 mi WNW 16.1 mph 26.5 mph N/A Snow Light Snow
11:15 AM 29.1 °F 18.4 °F 23.5 °F 80% 30.06 in 3.0 mi WNW 13.8 mph 23.0 mph N/A Snow Light Snow
11:35 AM 28.9 °F 17.3 °F 23.4 °F 80% 30.07 in 4.0 mi NW 16.1 mph 26.5 mph N/A Snow Light Snow
11:55 AM 28.9 °F 16.5 °F 22.1 °F 76% 30.07 in 7.0 mi NW 18.4 mph 33.4 mph N/A   Overcast
12:15 PM 29.5 °F 16.5 °F 21.9 °F 73% 30.08 in 5.0 mi WNW 20.7 mph 31.1 mph N/A   Haze
12:35 PM 29.8 °F 17.3 °F 22.3 °F 73% 30.09 in 5.0 mi WNW 19.6 mph 31.1 mph N/A   Haze
12:55 PM 28.9 °F 16.9 °F 22.6 °F 77% 30.10 in 4.0 mi NW 17.3 mph 25.3 mph N/A Snow Light Snow
1:15 PM 27.9 °F 15.9 °F 22.3 °F 80% 30.11 in 1.5 mi NNW 16.1 mph 27.6 mph N/A Snow Light Snow
1:35 PM 28.0 °F 16.5 °F 21.6 °F 77% 30.12 in 2.0 mi NW 15.0 mph 25.3 mph N/A Snow Light Snow
1:55 PM 28.0 °F 17.0 °F 21.6 °F 77% 30.14 in 4.0 mi NW 13.8 mph 21.9 mph N/A Snow Light Snow
2:15 PM 28.8 °F 17.5 °F 19.2 °F 68% 30.13 in 7.0 mi NW 15.0 mph 25.3 mph N/A   Overcast
2:35 PM 28.2 °F 15.2 °F 18.7 °F 67% 30.14 in 7.0 mi NNW 19.6 mph 27.6 mph N/A Snow Light Snow
2:55 PM 28.6 °F 16.0 °F 19.6 °F 69% 30.13 in 10.0 mi NNW 18.4 mph 24.2 mph N/A   Overcast
3:15 PM 27.3 °F 15.2 °F 19.8 °F 73% 30.14 in 4.0 mi NNW 16.1 mph 23.0 mph N/A Snow Light Snow
3:35 PM 28.6 °F 17.2 °F 18.7 °F 66% 30.14 in 7.0 mi NNW 15.0 mph 25.3 mph N/A Snow Light Snow
3:55 PM 28.4 °F 17.5 °F 18.7 °F 67% 30.14 in 10.0 mi NW 13.8 mph 21.9 mph N/A   Overcast
4:15 PM 27.7 °F 15.6 °F 18.0 °F 67% 30.15 in 7.0 mi NW 16.1 mph 27.6 mph N/A   Mostly Cloudy
4:35 PM 27.5 °F 16.3 °F 18.3 °F 68% 30.15 in 7.0 mi NNW 13.8 mph 28.8 mph N/A   Mostly Cloudy
4:55 PM 27.5 °F 15.0 °F 17.8 °F 67% 30.16 in 10.0 mi NW 17.3 mph 26.5 mph N/A   Scattered Clouds
5:15 PM 27.3 °F 15.2 °F 17.6 °F 67% 30.16 in 10.0 mi NNW 16.1 mph 24.2 mph N/A   Clear
5:35 PM 27.3 °F 15.2 °F 16.7 °F 64% 30.17 in 10.0 mi NW 16.1 mph 24.2 mph N/A   Scattered Clouds
5:55 PM 27.0 °F 15.6 °F 17.1 °F 66% 30.17 in 10.0 mi NNW 13.8 mph 23.0 mph N/A   Scattered Clouds
6:15 PM 26.2 °F 15.8 °F 16.3 °F 66% 30.18 in 10.0 mi NNW 11.5 mph 20.7 mph N/A   Scattered Clouds
6:35 PM 26.4 °F 15.5 °F 16.9 °F 67% 30.19 in 10.0 mi NW 12.7 mph 17.3 mph N/A   Mostly Cloudy
6:55 PM 25.5 °F 13.8 °F 16.3 °F 68% 30.19 in 10.0 mi NW 13.8 mph 19.6 mph N/A   Mostly Cloudy
7:15 PM 24.8 °F 13.4 °F 16.9 °F 72% 30.20 in 10.0 mi NW 12.7 mph 19.6 mph N/A   Mostly Cloudy
7:35 PM 24.8 °F 13.4 °F 18.7 °F 78% 30.21 in 5.0 mi NW 12.7 mph 17.3 mph N/A Snow Light Snow
7:55 PM 24.6 °F 13.2 °F 18.5 °F 78% 30.22 in 10.0 mi NW 12.7 mph 21.9 mph N/A   Mostly Cloudy
8:15 PM 23.7 °F - 17.4 °F 77% 30.23 in 10.0 mi Calm Calm - N/A   Scattered Clouds
8:35 PM 23.0 °F 11.7 °F 16.7 °F 77% 30.23 in 10.0 mi NW 11.5 mph - N/A   Clear
8:55 PM 22.8 °F 13.6 °F 16.7 °F 77% 30.24 in 10.0 mi NW 8.1 mph - N/A   Clear
9:15 PM 22.5 °F 13.2 °F 16.5 °F 78% 30.24 in 10.0 mi NNW 8.1 mph - N/A   Clear
9:35 PM 22.1 °F 14.7 °F 16.2 °F 78% 30.24 in 10.0 mi NW 5.8 mph - N/A   Clear
9:55 PM 21.9 °F 11.7 °F 15.8 °F 77% 30.25 in 10.0 mi NNW 9.2 mph - N/A   Clear
10:15 PM 21.7 °F - 15.6 °F 77% 30.25 in 10.0 mi Calm Calm - N/A   Clear
10:35 PM 21.7 °F 15.5 °F 14.9 °F 75% 30.26 in 10.0 mi NW 4.6 mph - N/A   Clear
10:55 PM 21.4 °F - 14.7 °F 75% 30.26 in 10.0 mi Calm Calm - N/A   Clear
11:15 PM 20.8 °F 10.4 °F 14.5 °F 77% 30.26 in 10.0 mi NW 9.2 mph - N/A   Clear
11:35 PM 20.5 °F 9.2 °F 14.5 °F 78% 30.27 in 10.0 mi NW 10.4 mph - N/A   Clear
11:55 PM 19.9 °F 9.3 °F 14.0 °F 78% 30.28 in 10.0 mi NW 9.2 mph - N/A   Clear